Location: Fredericksburg
(30.2750°N, 98.8720°W)
Time: 00:27:01
(UTC-05:00)

Amateur Radio Satellites - All Passes

Search period start: 27 August 2015 23:57
Search period end: 28 August 2015 23:57
Location: Fredericksburg, 30.2750°N, 98.8720°W

Satellite Date Start Highest point End Downlink Frequencies (MHz)
Time Altitude Azimuth
TIGRISAT 27 Aug 23:59:16 00:03:50 68° 101° (E) 00:08:17 435.000
POPSAT HIP 1 28 Aug 00:00:25 00:03:41 22° 95° (E) 00:07:04 437.405
DUCHIFAT 1 28 Aug 00:04:57 00:08:21 23° 96° (E) 00:11:50 145.980
ANTELSAT 28 Aug 00:14:23 00:18:59 75° 282° (WNW) 00:23:26 437.575/2403.000
QB50P2 28 Aug 00:15:39 00:19:34 35° 98° (E) 00:23:31 145.880/145.840
NANOSAT C BR1 28 Aug 00:20:17 00:24:16 38° 98° (E) 00:28:16 145.865
Cosmos 2504 28 Aug 00:20:40 00:28:10 55° 91° (E) 00:36:16 435.465 / 435.565
RS-15 28 Aug 00:27:10 00:31:53 13° 28° (NNE) 00:37:24 29.354- 29.394
ESTCUBE 1 28 Aug 00:27:54 00:32:21 68° 259° (W) 00:36:50 437.505/2401.250
QB50P1 28 Aug 00:31:48 00:36:01 56° 100° (E) 00:40:13 145.935-145.965
BUGSAT 1 28 Aug 00:32:25 00:36:10 31° 97° (E) 00:39:58 437.445
AUBIESAT-1 28 Aug 00:42:51 00:46:33 38° 291° (WNW) 00:49:57 437.475
M-CUBED/EXP-1 PRIME 28 Aug 00:43:49 00:47:24 31° 292° (WNW) 00:50:41 437.505
DX 1 28 Aug 00:57:10 00:59:05 12° 268° (W) 01:00:43 434.975-435.025
AISAT 28 Aug 00:59:26 01:02:39 19° 266° (W) 01:05:42 437.250
DANDE 28 Aug 01:01:09 01:01:53 11° 86° (E) 01:02:50 436.750
CUSAT 1 28 Aug 01:03:43 01:06:29 29° 90° (E) 01:09:58 437.405
UNISAT 6 28 Aug 01:06:31 01:09:47 19° 289° (WNW) 01:12:51 437.425
TISAT 1 28 Aug 01:12:16 01:16:14 46° 75° (ENE) 01:20:17 437.305
CUBEBUG 1 28 Aug 01:13:49 01:17:16 22° 265° (W) 01:20:36 437.445
SPROUT 28 Aug 01:25:54 01:30:08 60° 260° (W) 01:34:22 437.525
POLYITAN 1 28 Aug 01:31:29 01:35:04 25° 287° (WNW) 01:38:33 437.675
BEESAT 28 Aug 01:34:20 01:36:13 13° 69° (ENE) 01:38:22 436.000
POPSAT HIP 1 28 Aug 01:36:02 01:39:29 23° 288° (WNW) 01:42:48 437.405
DUCHIFAT 1 28 Aug 01:40:45 01:44:03 21° 288° (WNW) 01:47:12 145.980
QB50P2 28 Aug 01:52:44 01:55:11 15° 290° (WNW) 01:57:25 145.880/145.840
SWISSCUBE 28 Aug 01:57:28 02:01:20 26° 72° (ENE) 02:05:19 437.505
NANOSAT C BR1 28 Aug 01:57:36 01:59:47 13° 290° (WNW) 02:01:45 145.865
BUGSAT 1 28 Aug 02:08:40 02:11:24 16° 289° (WNW) 02:13:58 437.445
Oscar 19 28 Aug 02:12:59 02:17:08 25° 95° (E) 02:21:25 437.125/150
Cosmos 2504 28 Aug 02:14:34 02:20:54 24° 289° (WNW) 02:27:13 435.465 / 435.565
BEESAT 3 28 Aug 02:22:32 02:26:32 72° 62° (ENE) 02:30:28 437.485
BEESAT 2 28 Aug 02:27:56 02:31:55 59° 61° (ENE) 02:35:50 435.950
GONETS M04 28 Aug 02:30:52 02:34:07 13° 83° (E) 02:38:11
ITUPSAT 1 28 Aug 02:32:51 02:37:32 58° 75° (ENE) 02:42:14 437.325
AIST 2 28 Aug 02:35:22 02:37:14 13° 51° (NE) 02:39:15 435.215
PCSat 28 Aug 02:35:30 02:39:59 28° 108° (ESE) 02:44:36 145.827
RS-15 28 Aug 02:36:47 02:48:15 52° 55° (NE) 03:00:09 29.354- 29.394
DANDE 28 Aug 02:42:59 02:44:48 14° 291° (WNW) 02:46:43 436.750
SO-50 28 Aug 02:48:26 02:53:07 81° 298° (WNW) 02:58:00 436.795
ITAMSAT 1 28 Aug 03:02:45 03:06:00 17° 93° (E) 03:09:29 435.822/435.867
BEESAT 28 Aug 03:09:01 03:13:40 51° 260° (W) 03:18:19 436.000
JAS-2 28 Aug 03:09:59 03:12:34 13° 86° (E) 03:15:33 435.910
SWISSCUBE 28 Aug 03:35:14 03:39:08 24° 264° (W) 03:42:55 437.505
STARS 28 Aug 03:46:44 03:50:34 31° 73° (ENE) 03:54:29 437.465
Oscar 19 28 Aug 03:51:59 03:56:29 29° 288° (WNW) 04:00:52 437.125/150
KKS-1 28 Aug 03:53:41 03:58:05 70° 76° (ENE) 04:02:31 437.445
Gurwin Techsat 1B 28 Aug 03:57:10 04:02:30 86° 100° (E) 04:07:49 435.225
AIST 2 28 Aug 04:12:07 04:16:04 44° 246° (WSW) 04:19:56 435.215
ITUPSAT 1 28 Aug 04:15:21 04:15:50 10° 269° (W) 04:15:56 437.325
PCSat 28 Aug 04:18:37 04:23:20 29° 302° (WNW) 04:28:00 145.827
GONETS M04 28 Aug 04:21:23 04:30:05 87° 277° (W) 04:38:49
Cosmos 2499 28 Aug 04:23:09 04:28:39 21° 84° (E) 04:34:50 435.465 / 435.565
AO-7 28 Aug 04:32:02 04:38:44 28° 96° (E) 04:45:41 29.400- 29.500
ITAMSAT 1 28 Aug 04:40:51 04:45:42 41° 287° (WNW) 04:50:31 435.822/435.867
RS-15 28 Aug 04:49:39 05:00:37 41° 252° (WSW) 05:11:27 29.354- 29.394
JAS-2 28 Aug 04:51:38 04:58:40 75° 285° (WNW) 05:04:49 435.910
VERMONT LUNAR 28 Aug 04:57:35 05:00:24 40° 146° (SE) 05:03:14 437.305
HORYU 2 28 Aug 05:01:44 05:05:48 35° 98° (E) 05:09:52 437.375
MOZHAYETS 4 28 Aug 05:11:14 05:15:48 64° 76° (ENE) 05:20:22
STARS 28 Aug 05:24:09 05:27:04 17° 266° (W) 05:29:50 437.465
Cosmos 2499 28 Aug 06:13:03 06:21:07 64° 279° (W) 06:29:45 435.465 / 435.565
AO-7 28 Aug 06:23:52 06:31:49 51° 291° (WNW) 06:39:40 29.400- 29.500
GONETS M04 28 Aug 06:24:29 06:28:22 13° 295° (WNW) 06:31:29
O/OREOS (USA 219) 28 Aug 06:32:31 06:36:48 38° 67° (ENE) 06:41:05 437.305
VERMONT LUNAR 28 Aug 06:34:22 06:36:56 25° 340° (NNW) 06:39:29 437.305
CUTE-I 28 Aug 06:36:01 06:37:33 11° 91° (E) 06:39:31 437.470
HORYU 2 28 Aug 06:39:24 06:42:10 16° 290° (WNW) 06:44:45 437.375
STRAND 1 28 Aug 06:41:32 06:43:17 12° 67° (ENE) 06:45:21 437.568
CUBESAT XI-V 28 Aug 06:53:15 06:57:48 65° 77° (ENE) 07:02:22 437.345
Cubesat XI-IV 28 Aug 07:26:43 07:31:45 44° 99° (E) 07:36:49 437.490
PHONESAT 2.4 28 Aug 07:33:28 07:36:50 75° 151° (SSE) 07:40:14 2401.200-2431.200
PRISM 28 Aug 07:33:41 07:37:07 27° 73° (ENE) 07:40:38 437.425
YUBILEINY 28 Aug 08:00:21 08:02:44 12° 64° (ENE) 08:06:00 435.215
VERMONT LUNAR 28 Aug 08:12:48 08:14:02 12° 356° (N) 08:15:17 437.305
CUTE-I 28 Aug 08:12:52 08:18:06 62° 285° (WNW) 08:23:21 437.470
O/OREOS (USA 219) 28 Aug 08:13:22 08:15:55 14° 259° (W) 08:18:14 437.305
STRAND 1 28 Aug 08:16:59 08:22:02 61° 259° (WSW) 08:27:05 437.568
DOVE 4 28 Aug 08:36:01 08:37:36 12° 89° (E) 08:39:35 437.250
Cosmos 2491 28 Aug 08:40:12 08:43:16 13° 83° (E) 08:47:08 435.465 / 435.565
BRITE-PL 28 Aug 08:46:38 08:51:58 51° 99° (E) 08:57:30 437.365/2234.400
AIST 1 28 Aug 09:00:59 09:04:53 37° 93° (E) 09:08:49
Cubesat XI-IV 28 Aug 09:07:57 09:11:34 18° 291° (WNW) 09:14:58 437.490
PRISM 28 Aug 09:09:52 09:12:34 16° 265° (W) 09:15:08 437.425
PHONESAT 2.4 28 Aug 09:12:12 09:14:58 23° 344° (NNW) 09:17:44 2401.200-2431.200
CUTE 1.7 + AOD 2 28 Aug 09:26:08 09:29:32 24° 95° (E) 09:33:00 437.475
GOMX 1 28 Aug 09:36:42 09:42:10 86° 284° (WNW) 09:47:41 467.674
CANX-2 28 Aug 09:39:01 09:43:00 40° 98° (E) 09:46:58 2200.000
VERMONT LUNAR 28 Aug 09:49:22 09:51:17 16° 13° (NNE) 09:53:13 437.305
CINEMA 3 28 Aug 09:49:26 09:53:47 30° 96° (E) 09:58:05 145.822/145.860
YUBILEINY 28 Aug 09:52:19 10:01:11 82° 83° (E) 10:09:59 435.215
M-CUBED/EXP-1 PRIME 28 Aug 09:54:07 09:54:48 10° 63° (ENE) 09:55:49 437.505
ISS 28 Aug 09:57:47 10:00:47 37° 131° (SE) 10:03:49 145.825
HO-68 28 Aug 10:03:35 10:10:47 72° 103° (ESE) 10:17:57 435.675
SEEDS 28 Aug 10:07:46 10:11:55 66° 100° (E) 10:16:03 437.485
CUBEBUG 2 28 Aug 10:08:02 10:11:17 19° 93° (E) 10:14:38 437.445
DOVE 4 28 Aug 10:10:32 10:15:48 64° 284° (WNW) 10:21:00 437.250
Cosmos 2504 28 Aug 10:18:35 10:20:32 11° 64° (ENE) 10:23:15 435.465 / 435.565
UWE-3 28 Aug 10:23:26 10:26:53 22° 94° (E) 10:30:24 435.000/436.395/437.385
UNISAT 6 28 Aug 10:23:43 10:26:10 15° 70° (ENE) 10:28:52 437.425
ZACube-1 28 Aug 10:26:19 10:29:06 17° 93° (E) 10:32:00 437.345
BRITE-PL 28 Aug 10:26:29 10:30:09 18° 290° (WNW) 10:33:38 437.365/2234.400
Cosmos 2491 28 Aug 10:30:30 10:39:14 89° 275° (W) 10:47:59 435.465 / 435.565
FUNcube-1 28 Aug 10:33:18 10:36:28 20° 94° (E) 10:39:43 145.935
COMPASS 1 28 Aug 10:36:34 10:40:42 68° 283° (WNW) 10:44:47 437.405
AIST 1 28 Aug 10:41:01 10:42:46 12° 287° (WNW) 10:44:14
AAUSAT CUBESAT 2 28 Aug 10:50:29 10:54:31 53° 284° (WNW) 10:58:31 437.432
PHONESAT 2.4 28 Aug 10:51:40 10:53:37 14° 1° (N) 10:55:35 2401.200-2431.200
TIGRISAT 28 Aug 10:52:18 10:56:17 30° 73° (ENE) 11:00:24 435.000
CUTE 1.7 + AOD 2 28 Aug 11:02:12 11:05:19 20° 288° (WNW) 11:08:18 437.475
QB50P2 28 Aug 11:04:39 11:06:35 13° 70° (ENE) 11:08:46 145.880/145.840
ANTELSAT 28 Aug 11:07:10 11:11:35 47° 75° (ENE) 11:16:07 437.575/2403.000
NANOSAT C BR1 28 Aug 11:08:43 11:10:51 14° 70° (ENE) 11:13:11 145.865
DX 1 28 Aug 11:14:54 11:16:05 11° 92° (E) 11:17:34 434.975-435.025
CANX-2 28 Aug 11:16:49 11:18:35 12° 290° (WNW) 11:20:08 2200.000
QB50P1 28 Aug 11:19:42 11:22:43 20° 72° (ENE) 11:25:53 145.935-145.965
AUBIESAT-1 28 Aug 11:23:01 11:27:43 88° 255° (WSW) 11:32:29 437.475
M-CUBED/EXP-1 PRIME 28 Aug 11:24:19 11:29:02 72° 255° (WSW) 11:33:50 437.505
VERMONT LUNAR 28 Aug 11:25:09 11:28:07 64° 28° (NNE) 11:31:06 437.305
SO-50 28 Aug 11:26:20 11:30:00 21° 52° (NE) 11:33:43 436.795
CINEMA 3 28 Aug 11:26:51 11:30:47 23° 289° (WNW) 11:34:30 145.822/145.860
Oscar 11 28 Aug 11:27:01 11:31:12 49° 284° (WNW) 11:35:20 145.826/435.025
UKube-1 28 Aug 11:32:30 11:35:16 17° 94° (E) 11:38:12 .
ISS 28 Aug 11:35:19 11:37:19 15° 325° (NW) 11:39:16 145.825
DANDE 28 Aug 11:41:45 11:47:21 23° 73° (ENE) 11:53:49 436.750
CUSAT 1 28 Aug 11:42:45 11:49:34 34° 75° (ENE) 11:56:54 437.405
DELFI C3 28 Aug 11:43:22 11:47:11 45° 284° (WNW) 11:50:58 145.870
HUMSAT D 28 Aug 11:43:35 11:47:44 52° 99° (E) 11:51:48 437.325/437.525
CUBEBUG 2 28 Aug 11:43:54 11:48:01 30° 287° (WNW) 11:51:58 437.445
VELOX 1 28 Aug 11:48:24 11:51:24 18° 94° (E) 11:54:35 145.980
YUBILEINY 28 Aug 11:52:18 11:57:10 15° 277° (W) 12:01:19 435.215
HO-68 28 Aug 11:53:18 11:57:54 18° 296° (WNW) 12:02:09 435.675
UNISAT 6 28 Aug 11:58:13 12:02:36 42° 262° (W) 12:07:02 437.425
UWE-3 28 Aug 11:59:33 12:03:23 26° 288° (WNW) 12:07:03 435.000/436.395/437.385
ZACube-1 28 Aug 12:01:31 12:05:33 32° 286° (WNW) 12:09:25 437.345
Cosmos 2504 28 Aug 12:05:53 12:14:24 80° 83° (E) 12:22:23 435.465 / 435.565
FUNcube-1 28 Aug 12:08:58 12:12:47 27° 287° (WNW) 12:16:27 145.935
POLYITAN 1 28 Aug 12:17:45 12:21:58 71° 259° (WSW) 12:26:14 437.675
POPSAT HIP 1 28 Aug 12:22:01 12:26:12 64° 259° (W) 12:30:25 437.405
DUCHIFAT 1 28 Aug 12:26:10 12:30:19 59° 260° (W) 12:34:29 145.980
ESTCUBE 1 28 Aug 12:26:24 12:30:36 39° 99° (E) 12:34:49 437.505/2401.250
PHONESAT 2.4 28 Aug 12:29:25 12:32:15 24° 17° (NNE) 12:35:07 2401.200-2431.200
TIGRISAT 28 Aug 12:29:39 12:33:03 20° 266° (W) 12:36:22 435.000
Cosmos 2491 28 Aug 12:33:21 12:37:29 13° 295° (WNW) 12:40:51 435.465 / 435.565
QB50P2 28 Aug 12:38:14 12:42:11 37° 262° (W) 12:46:08 145.880/145.840
NANOSAT C BR1 28 Aug 12:42:32 12:46:24 35° 262° (W) 12:50:16 145.865
ANTELSAT 28 Aug 12:46:37 12:48:40 12° 269° (W) 12:50:25 437.575/2403.000
DX 1 28 Aug 12:48:24 12:52:35 45° 285° (WNW) 12:56:45 434.975-435.025
50 SAT 28 Aug 12:50:16 12:54:01 50° 284° (WNW) 12:57:42 437.505
BUGSAT 1 28 Aug 12:51:37 12:55:29 45° 261° (W) 12:59:24 437.445
AISAT 28 Aug 12:54:13 12:58:39 64° 284° (WNW) 13:03:05 437.250
QB50P1 28 Aug 12:54:57 12:58:27 24° 264° (W) 13:01:53 145.935-145.965
VERMONT LUNAR 28 Aug 13:02:53 13:04:20 13° 219° (SW) 13:05:42 437.305
TISAT 1 28 Aug 13:04:27 13:05:51 12° 92° (E) 13:07:32 437.305
SO-50 28 Aug 13:06:12 13:10:41 36° 247° (WSW) 13:14:58 436.795
CUBEBUG 1 28 Aug 13:07:06 13:11:31 80° 283° (WNW) 13:15:56 437.445
UKube-1 28 Aug 13:07:39 13:11:26 29° 287° (WNW) 13:15:10 .
PCSat 28 Aug 13:11:22 13:16:44 66° 64° (ENE) 13:22:07 145.827
JUGNU 28 Aug 13:16:57 13:18:24 11° 161° (SSE) 13:20:00 437.505
SPROUT 28 Aug 13:18:22 13:22:19 35° 98° (E) 13:26:18 437.525
DANDE 28 Aug 13:23:15 13:30:49 66° 265° (W) 13:39:14 436.750
VELOX 1 28 Aug 13:24:06 13:27:59 29° 287° (WNW) 13:31:49 145.980
Oscar 19 28 Aug 13:24:43 13:28:23 21° 70° (ENE) 13:32:15 437.125/150
CUSAT 1 28 Aug 13:24:48 13:32:12 45° 267° (W) 13:39:50 437.405
Cosmos 2504 28 Aug 14:01:03 14:05:41 15° 278° (W) 14:09:35 435.465 / 435.565
ESTCUBE 1 28 Aug 14:04:37 14:07:10 15° 290° (WNW) 14:09:31 437.505/2401.250
PHONESAT 2.4 28 Aug 14:06:58 14:10:21 66° 212° (SSW) 14:13:44 2401.200-2431.200
ITAMSAT 1 28 Aug 14:15:54 14:18:45 16° 68° (ENE) 14:21:51 435.822/435.867
TISAT 1 28 Aug 14:37:49 14:41:50 41° 285° (WNW) 14:45:50 437.305
GONETS M04 28 Aug 14:39:18 14:47:06 36° 76° (ENE) 14:55:06
ITUPSAT 1 28 Aug 14:39:51 14:43:37 24° 96° (E) 14:47:30 437.325
SPROUT 28 Aug 14:55:36 14:58:07 15° 289° (WNW) 15:00:26 437.525
JAS-2 28 Aug 14:55:57 15:02:08 30° 68° (ENE) 15:08:47 435.910
PCSat 28 Aug 14:57:46 14:59:42 11° 255° (WSW) 15:01:13 145.827
JUGNU 28 Aug 15:02:27 15:06:54 22° 169° (S) 15:11:22 437.505
Oscar 19 28 Aug 15:02:49 15:07:32 35° 262° (W) 15:12:14 437.125/150
Gurwin Techsat 1B 28 Aug 15:12:23 15:17:40 77° 77° (ENE) 15:23:00 435.225
BEESAT 28 Aug 15:14:51 15:19:34 64° 101° (E) 15:24:17 436.000
AO-7 28 Aug 15:25:36 15:31:45 25° 63° (ENE) 15:38:12 29.400- 29.500
SWISSCUBE 28 Aug 15:40:16 15:44:56 58° 285° (WNW) 15:49:36 437.505
KKS-1 28 Aug 15:51:16 15:54:40 22° 95° (E) 15:58:10 437.445
ITAMSAT 1 28 Aug 15:52:55 15:57:54 48° 260° (W) 16:02:54 435.822/435.867
HORYU 2 28 Aug 15:55:25 15:58:11 17° 70° (ENE) 16:01:09 437.375
SRMSAT 28 Aug 16:05:37 16:09:20 17° 165° (SSE) 16:13:09 437.500
BEESAT 3 28 Aug 16:09:13 16:13:08 53° 115° (ESE) 16:17:06 437.485
Cosmos 2499 28 Aug 16:12:10 16:19:52 36° 75° (ENE) 16:27:14 435.465 / 435.565
BEESAT 2 28 Aug 16:15:39 16:19:31 45° 114° (ESE) 16:23:28 435.950
ITUPSAT 1 28 Aug 16:17:31 16:21:27 26° 288° (WNW) 16:25:18 437.325
GONETS M04 28 Aug 16:35:56 16:43:59 40° 271° (W) 16:51:53
JAS-2 28 Aug 16:39:48 16:46:49 47° 263° (W) 16:54:16 435.910
JUGNU 28 Aug 16:50:25 16:55:26 29° 178° (S) 17:00:25 437.505
RS-15 28 Aug 16:52:59 17:03:23 56° 111° (ESE) 17:14:11 29.354- 29.394
MOZHAYETS 4 28 Aug 17:12:50 17:16:24 23° 95° (E) 17:20:05
AO-7 28 Aug 17:15:47 17:24:02 63° 257° (WSW) 17:32:17 29.400- 29.500
STARS 28 Aug 17:17:46 17:22:09 57° 284° (WNW) 17:26:29 437.465
KKS-1 28 Aug 17:27:32 17:31:15 25° 288° (WNW) 17:34:52 437.445
HORYU 2 28 Aug 17:30:30 17:34:35 33° 262° (W) 17:38:38 437.375
BEESAT 3 28 Aug 17:50:15 17:51:25 11° 310° (NW) 17:52:23 437.485
CUTE-I 28 Aug 17:52:53 17:54:33 12° 67° (ENE) 17:56:35 437.470
SRMSAT 28 Aug 17:53:05 17:58:00 28° 174° (S) 18:02:58 437.500
BEESAT 2 28 Aug 17:55:55 17:57:50 13° 309° (NW) 17:59:35 435.950
AIST 2 28 Aug 18:04:04 18:08:11 52° 299° (WNW) 18:12:21 435.215
Cosmos 2499 28 Aug 18:05:14 18:13:01 38° 272° (W) 18:20:10 435.465 / 435.565
ISS 28 Aug 18:05:50 18:08:49 34° 42° (NE) 18:11:50 145.825
JUGNU 28 Aug 18:39:13 18:43:58 26° 188° (S) 18:48:41 437.505
Cubesat XI-IV 28 Aug 18:43:07 18:48:03 41° 73° (ENE) 18:53:03 437.490
MOZHAYETS 4 28 Aug 18:49:52 18:53:34 24° 288° (WNW) 18:57:08
CUBESAT XI-V 28 Aug 18:56:09 18:59:57 25° 96° (E) 19:03:52 437.345
RS-15 28 Aug 19:06:25 19:16:16 36° 311° (NW) 19:26:13 29.354- 29.394
CUTE-I 28 Aug 19:28:52 19:34:09 67° 258° (WSW) 19:39:27 437.470
SRMSAT 28 Aug 19:41:42 19:46:44 29° 184° (S) 19:51:46 437.500
ISS 28 Aug 19:43:21 19:45:00 13° 233° (SW) 19:46:33 145.825
BRITE-PL 28 Aug 19:53:12 19:56:36 25° 72° (ENE) 20:00:16 437.365/2234.400
Cubesat XI-IV 28 Aug 20:24:38 20:28:21 18° 266° (W) 20:31:51 437.490
HO-68 28 Aug 20:26:39 20:32:32 30° 67° (ENE) 20:38:36 435.675
CANX-2 28 Aug 20:27:40 20:30:01 15° 71° (ENE) 20:32:34 2200.000
JUGNU 28 Aug 20:29:17 20:32:27 15° 196° (SSW) 20:35:31 437.505
STRAND 1 28 Aug 20:33:16 20:38:22 74° 103° (ESE) 20:43:27 437.568
CUBESAT XI-V 28 Aug 20:33:37 20:37:17 23° 288° (WNW) 20:40:52 437.345
O/OREOS (USA 219) 28 Aug 20:38:38 20:43:04 60° 290° (WNW) 20:47:35 437.305
GOMX 1 28 Aug 20:39:35 20:43:44 50° 75° (ENE) 20:48:11 467.674
CINEMA 3 28 Aug 20:46:58 20:49:13 14° 69° (ENE) 20:51:48 145.822/145.860
Cosmos 2491 28 Aug 20:48:37 20:56:18 35° 75° (ENE) 21:04:11 435.465 / 435.565
AIST 1 28 Aug 20:50:52 20:55:13 87° 259° (W) 20:59:33
YUBILEINY 28 Aug 20:53:19 20:58:11 17° 84° (E) 21:03:39 435.215
SEEDS 28 Aug 20:54:40 20:57:55 22° 73° (ENE) 21:01:15 437.485
PRISM 28 Aug 20:55:54 21:00:01 78° 282° (WNW) 21:04:06 437.425
DOVE 4 28 Aug 21:10:19 21:14:40 67° 77° (ENE) 21:19:19 437.250
COMPASS 1 28 Aug 21:21:55 21:25:46 36° 75° (ENE) 21:29:40 437.405
SRMSAT 28 Aug 21:31:09 21:35:25 20° 193° (SSW) 21:39:38 437.500
BRITE-PL 28 Aug 21:32:09 21:35:12 19° 267° (W) 21:38:13 437.365/2234.400
AAUSAT CUBESAT 2 28 Aug 21:35:10 21:39:09 44° 76° (ENE) 21:43:09 437.432
CUTE 1.7 + AOD 2 28 Aug 21:47:57 21:52:11 58° 260° (W) 21:56:25 437.475
CANX-2 28 Aug 22:01:45 22:05:41 34° 263° (W) 22:09:35 2200.000
HO-68 28 Aug 22:13:21 22:20:04 42° 261° (W) 22:26:44 435.675
Oscar 11 28 Aug 22:15:38 22:19:54 58° 77° (ENE) 22:24:11 145.826/435.025
CINEMA 3 28 Aug 22:21:43 22:26:01 43° 262° (W) 22:30:31 145.822/145.860
DELFI C3 28 Aug 22:24:20 22:28:11 44° 76° (ENE) 22:32:04 145.870
SEEDS 28 Aug 22:30:13 22:33:36 22° 265° (W) 22:36:53 437.485
HUMSAT D 28 Aug 22:30:26 22:33:19 18° 72° (ENE) 22:36:22 437.325/437.525
CUBEBUG 2 28 Aug 22:35:16 22:39:46 73° 259° (WSW) 22:44:26 437.445
Cosmos 2491 28 Aug 22:45:13 22:53:13 40° 271° (W) 23:01:07 435.465 / 435.565
YUBILEINY 28 Aug 22:45:30 22:54:14 75° 277° (W) 23:03:04 435.215
UWE-3 28 Aug 22:49:40 22:54:08 64° 260° (W) 22:58:44 435.000/436.395/437.385
ZACube-1 28 Aug 22:50:40 22:55:07 85° 255° (WSW) 22:59:43 437.345
FUNcube-1 28 Aug 22:57:43 23:02:10 72° 259° (W) 23:06:43 145.935
COMPASS 1 28 Aug 22:59:30 23:01:35 13° 268° (W) 23:03:25 437.405
ANTELSAT 28 Aug 23:06:27 23:09:04 16° 92° (E) 23:11:52 437.575/2403.000
M-CUBED/EXP-1 PRIME 28 Aug 23:13:44 23:15:21 13° 95° (E) 23:17:06 437.505
AAUSAT CUBESAT 2 28 Aug 23:14:10 23:15:00 10° 269° (W) 23:15:31 437.432
ESTCUBE 1 28 Aug 23:21:24 23:24:25 19° 71° (ENE) 23:27:36 437.505/2401.250
50 SAT 28 Aug 23:27:49 23:31:24 35° 75° (ENE) 23:35:02 437.505
DX 1 28 Aug 23:37:53 23:42:11 72° 76° (ENE) 23:46:30 434.975-435.025
AISAT 28 Aug 23:46:04 23:50:20 53° 75° (ENE) 23:54:38 437.250
RS-15 28 Aug 23:53:37 23:54:29 10° 21° (NNE) 23:56:01 29.354- 29.394
